FENGYUN 1C DEB

Satellite information

Favourite Embed

Satellite Type and Status

DEBRISIN ORBIT

Key statistics

Satellite FENGYUN 1C DEB at a glance.

Uptime

9656

Days in orbit

Revolutions

≈ 14.6

Per day

Orbit

SSO

Sun Synchronous Orbit

Inclination

98.4

Latest

Satellite identification and parameters

Extended collection of information and parameters for FENGYUN 1C DEB.

Object identification

Identified? True

Debris? True

Object name: FENGYUN 1C DEB

International designator: 1999-025BJD

Object number (NORAD): 31175

Object ID (CCSDS): 31175

Country: PEOPLES REPUBLIC OF CHINA (PRC)

Current information (Y/N): Y

RCS size: SMALL

Orbital parameters

Period: 98.924 minutes

Inclination: 98.3999 deg

SMA: 7085.374 km

Apoapsis: 765.351 km

Periapsis: 649.126 km

RAAN: 279.7836 deg

Eccentricy: 0.00820179

Argument of periapsis: 14.6948 deg

Mean anomaly: 345.6606 deg

Mean motion: 14.55655597 rev/day

Mean motion (dot): 0.0003179 rev/day2

B* drag term: 0.0069369117 1/REarth

Two-line elements (TLE)

Creation date: Oct. 7, 2025, 11:10 a.m.

Reference frame: TEME

Reference center: EARTH

Epoch: Oct. 7, 2025, 5:55 a.m. UTC

TLE line 0: 0 FENGYUN 1C DEB

TLE line 1: 1 31175U 99025BJD 25280.24717698 .00031790 00000-0 69369-2 0 9998

TLE line 2: 2 31175 98.3999 279.7836 0082018 14.6948 345.6606 14.55655597646704

Live tracking on map

Real-time ground track for satellite FENGYUN 1C DEB.

In-orbit conjunctions

A list of the most updated potential collisions computed for object FENGYUN 1C DEB.

Target Orbit TCA Probability of collision Miss distance Type
THORAD AGENA D DEB LEO 2024-12-10 07:03:21 0.0001193148 100.0 (m) DEBRIS
CZ-4 DEB SSO 2024-09-25 17:37:06 0.0003051791 676.0 (m) DEBRIS

Associated space launch

Chinese polar orbiting meteorological satellite

FENGYUN 1C DEB was lifted into orbit during the mission ‘Long March 4B | Feng Yun 1C’, on board a Long March 4B space rocket.

The launch took place on May 10, 1999, 1:33 a.m. from Launch Complex 7.

For more information about the launch, click the button.

Launch to space Long March 4B | Feng Yun 1C
Long March 4B | Feng Yun 1C

Agency: N/A

Status: Launch Successful

Launch date: May 10, 1999, 1:33 a.m. UTC

Rocket: Long March 4B

Launch pad: Launch Complex 7

Location: Taiyuan Satellite Launch Center, People's Republic of China

...

Latest news about this satellite

There are no fresh news available about this satellite. Check back as we update our databases every day.


Newsletter sign-up

Weekly statistics, charts and insights to help you stay on top of the space industry.